Date String (YYYY-MM-DD hh:mm:ss) UTC,Instrument flags,absolute air pressure of the measurement (hPa),sample flow rate (lpm),inlet stack bypass flow (lpm),air temperature of the measurement (°C),ambient temperature measured by the external sensor (°C),aerosol sample conditioner tube jacket temperature (°C),OPC LED temperature (°C),internal box temperature (°C),relative humidity of the measurement (%),span deviation,mass concentration of particles derived from Lorenz-Mie calculation of OPC scattering (μg/m³),mass concentration of particles derived from Lorenz-Mie calculation of OPC scattering (μg/m³),mass concentration of particles derived from Lorenz-Mie calculation of OPC scattering (μg/m³)
DateTimeUTC,F1_M11,P_M11,Q1_M11,Q2_M11,T1_M11,T2_M11,T3_M11,T4_M11,T5_M11,U1_M11,ZSPAN_M11,X0_M11,X2_M11,X1_M11
2024-04-05 03:00:00,SystemResetWarning,0822.0,5.00,000.00,025.4,024.8,000.0,033.7,027.3,010.7,0000.0,0010.10,0002.91,0001.98
2024-04-05 03:01:00,SystemResetWarning,0822.0,5.01,000.00,025.4,024.8,000.0,033.7,027.3,010.5,0000.0,0010.06,0002.91,0001.97
2024-04-05 03:02:00,SystemResetWarning,0822.0,5.00,000.00,025.4,024.8,000.0,033.7,027.3,010.8,0000.0,0010.11,0002.98,0001.99
2024-04-05 03:03:00,SystemResetWarning,0821.9,5.00,000.00,025.4,024.9,000.0,033.8,027.3,011.1,0000.0,0010.46,0003.07,0002.01
2024-04-05 03:04:00,SystemResetWarning,0821.9,5.00,000.00,025.5,024.9,000.0,033.8,027.3,011.0,0000.0,0010.03,0003.09,0002.01
2024-04-05 03:05:00,SystemResetWarning,0821.9,4.99,000.00,025.5,024.9,000.0,033.8,027.4,011.0,0000.0,0010.03,0003.12,0002.01
2024-04-05 03:06:00,SystemResetWarning,0822.0,4.99,000.00,025.5,024.9,000.0,033.8,027.4,010.8,0000.0,0009.20,0003.12,0002.01
2024-04-05 03:07:00,SystemResetWarning,0822.0,5.00,000.00,025.5,024.9,000.0,033.8,027.4,011.3,0000.0,0009.33,0003.13,0002.00
2024-04-05 03:08:00,SystemResetWarning,0822.0,5.00,000.00,025.5,024.9,000.0,033.9,027.4,010.8,0000.0,0010.04,0003.11,0001.99
2024-04-05 03:09:00,SystemResetWarning,0822.0,5.00,000.00,025.6,025.0,000.0,033.9,027.4,010.4,0000.0,0009.49,0003.13,0002.00
2024-04-05 03:10:00,SystemResetWarning,0822.1,5.01,000.00,025.6,025.0,000.0,033.9,027.5,010.2,0000.0,0008.48,0003.13,0002.01
2024-04-05 03:11:00,SystemResetWarning,0822.1,5.00,000.00,025.6,025.0,000.0,033.9,027.5,010.1,0000.0,0008.08,0003.14,0002.03
2024-04-05 03:12:00,SystemResetWarning,0822.1,5.00,000.00,025.6,025.0,000.0,033.9,027.5,009.9,0000.0,0008.02,0003.16,0002.05
2024-04-05 03:13:00,SystemResetWarning,0822.1,4.99,000.00,025.6,025.0,000.0,034.0,027.5,009.8,0000.0,0008.87,0003.14,0002.06
2024-04-05 03:14:00,SystemResetWarning,0822.1,4.98,000.00,025.6,025.0,000.0,034.0,027.5,009.7,0000.0,0008.81,0003.09,0002.05
2024-04-05 03:15:00,SystemResetWarning,0822.1,5.01,000.00,025.7,025.0,000.0,034.0,027.5,009.8,0000.0,0009.09,0003.06,0002.05
2024-04-05 03:16:00,SystemResetWarning,0822.1,5.00,000.00,025.7,025.0,000.0,034.0,027.5,009.8,0000.0,0008.94,0003.00,0002.06
2024-04-05 03:17:00,SystemResetWarning,0822.1,5.00,000.00,025.7,025.0,000.0,034.1,027.6,009.9,0000.0,0009.68,0003.00,0002.07
2024-04-05 03:18:00,SystemResetWarning,0822.1,5.01,000.00,025.7,025.0,000.0,034.1,027.6,010.1,0000.0,0009.93,0003.04,0002.08
2024-04-05 03:19:00,SystemResetWarning,0822.1,5.00,000.00,025.7,025.1,000.0,034.1,027.6,010.2,0000.0,0010.01,0002.96,0002.11
2024-04-05 03:20:00,SystemResetWarning,0822.1,4.98,000.00,025.7,025.1,000.0,034.1,027.6,010.3,0000.0,0010.16,0002.94,0002.12
2024-04-05 03:21:00,SystemResetWarning,0822.1,5.00,000.00,025.7,025.1,000.0,034.1,027.6,010.3,0000.0,0010.26,0002.95,0002.12
2024-04-05 03:22:00,SystemResetWarning,0822.1,5.02,000.00,025.7,025.1,000.0,034.1,027.6,010.3,0000.0,0010.26,0002.94,0002.11
2024-04-05 03:23:00,SystemResetWarning,0822.1,5.00,000.00,025.8,025.1,000.0,034.1,027.6,010.1,0000.0,0010.54,0002.94,0002.09
2024-04-05 03:24:00,SystemResetWarning,0822.1,5.00,000.00,025.8,025.1,000.0,034.2,027.6,010.0,0000.0,0010.61,0002.94,0002.09
2024-04-05 03:25:00,SystemResetWarning,0822.1,5.00,000.00,025.8,025.1,000.0,034.2,027.6,010.0,0000.0,0010.25,0002.98,0002.09
2024-04-05 03:26:00,SystemResetWarning,0822.1,5.00,000.00,025.8,025.1,000.0,034.2,027.6,010.1,0000.0,0009.90,0002.99,0002.09
2024-04-05 03:27:00,SystemResetWarning,0822.1,5.00,000.00,025.8,025.1,000.0,034.2,027.7,010.0,0000.0,0010.14,0002.96,0002.08
2024-04-05 03:28:00,SystemResetWarning,0822.1,5.00,000.00,025.8,025.1,000.0,034.2,027.7,010.0,0000.0,0009.58,0002.93,0002.08
2024-04-05 03:29:00,SystemResetWarning,0822.1,5.00,000.00,025.8,025.2,000.0,034.2,027.7,010.0,0000.0,0009.35,0002.91,0002.08
2024-04-05 03:30:00,SystemResetWarning,0822.1,5.00,000.00,025.8,025.2,000.0,034.2,027.7,010.0,0000.0,0008.85,0002.99,0002.08
2024-04-05 03:31:00,SystemResetWarning,0822.1,5.00,000.00,025.8,025.2,000.0,034.3,027.7,010.3,0000.0,0009.05,0003.01,0002.09
2024-04-05 03:32:00,SystemResetWarning,0822.1,5.00,000.00,025.8,025.2,000.0,034.3,027.7,010.6,0000.0,0009.48,0002.99,0002.10
2024-04-05 03:33:00,SystemResetWarning,0822.1,5.00,000.00,025.8,025.2,000.0,034.3,027.7,010.8,0000.0,0009.62,0003.07,0002.12
2024-04-05 03:34:00,SystemResetWarning,0822.1,5.01,000.00,025.9,025.2,000.0,034.3,027.7,010.6,0000.0,0009.99,0003.04,0002.13
2024-04-05 03:35:00,SystemResetWarning,0822.1,5.01,000.00,025.9,025.2,000.0,034.3,027.7,010.5,0000.0,0009.32,0003.05,0002.16
2024-04-05 03:36:00,SystemResetWarning,0822.1,5.00,000.00,025.9,025.2,000.0,034.3,027.7,010.2,0000.0,0009.14,0003.02,0002.17
2024-04-05 03:37:00,SystemResetWarning,0822.1,5.00,000.00,025.9,025.2,000.0,034.3,027.7,010.3,0000.0,0009.20,0003.00,0002.17
2024-04-05 03:38:00,SystemResetWarning,0822.1,5.00,000.00,025.9,025.2,000.0,034.3,027.7,010.2,0000.0,0010.05,0002.98,0002.18
2024-04-05 03:39:00,SystemResetWarning,0822.0,4.99,000.00,025.9,025.2,000.0,034.3,027.7,010.1,0000.0,0009.73,0002.97,0002.19
2024-04-05 03:40:00,SystemResetWarning,0822.1,5.00,000.00,025.9,025.2,000.0,034.4,027.7,010.1,0000.0,0009.81,0002.95,0002.19
2024-04-05 03:41:00,SystemResetWarning,0822.0,5.01,000.00,025.9,025.2,000.0,034.4,027.8,010.1,0000.0,0010.07,0003.01,0002.20
2024-04-05 03:42:00,SystemResetWarning,0822.1,5.01,000.00,025.9,025.2,000.0,034.4,027.7,010.2,0000.0,0010.61,0003.07,0002.20
2024-04-05 03:43:00,SystemResetWarning,0822.1,4.99,000.00,025.9,025.2,000.0,034.4,027.7,010.1,0000.0,0010.30,0003.06,0002.19
2024-04-05 03:44:00,SystemResetWarning,0822.1,4.99,000.00,025.9,025.2,000.0,034.4,027.8,010.2,0000.0,0010.19,0003.02,0002.19
2024-04-05 03:45:00,SystemResetWarning,0822.1,5.01,000.00,025.9,025.2,000.0,034.4,027.8,010.5,0000.0,0009.57,0003.09,0002.22
2024-04-05 03:46:00,SystemResetWarning,0822.1,5.00,000.00,025.9,025.2,000.0,034.4,027.8,010.4,0000.0,0009.69,0003.14,0002.22
2024-04-05 03:47:00,SystemResetWarning,0822.1,5.00,000.00,025.9,025.2,000.0,034.4,027.7,010.2,0000.0,0010.40,0003.19,0002.20
2024-04-05 03:48:00,SystemResetWarning,0822.1,4.99,000.00,025.9,025.2,000.0,034.4,027.8,010.0,0000.0,0010.49,0003.27,0002.21
2024-04-05 03:49:00,SystemResetWarning,0822.1,5.00,000.00,025.9,025.2,000.0,034.4,027.8,009.9,0000.0,0009.79,0003.29,0002.22
2024-04-05 03:50:00,SystemResetWarning,0822.1,5.00,000.00,025.9,025.2,000.0,034.4,027.8,009.8,0000.0,0010.63,0003.31,0002.22
2024-04-05 03:51:00,SystemResetWarning,0822.1,5.00,000.00,025.9,025.2,000.0,034.4,027.8,010.0,0000.0,0011.32,0003.32,0002.22
2024-04-05 03:52:00,SystemResetWarning,0822.1,5.00,000.00,025.9,025.2,000.0,034.4,027.8,009.9,0000.0,0011.56,0003.28,0002.23
2024-04-05 03:53:00,SystemResetWarning,0822.1,4.99,000.00,025.9,025.2,000.0,034.4,027.8,009.8,0000.0,0010.36,0003.24,0002.23
2024-04-05 03:54:00,SystemResetWarning,0822.1,5.00,000.00,025.9,025.2,000.0,034.4,027.8,009.7,0000.0,0010.17,0003.26,0002.24
2024-04-05 03:55:00,SystemResetWarning,0822.1,5.01,000.00,025.9,025.2,000.0,034.5,027.8,009.8,0000.0,0010.69,0003.28,0002.22
2024-04-05 03:56:00,SystemResetWarning,0822.2,5.01,000.00,026.0,025.2,000.0,034.5,027.8,010.0,0000.0,0011.22,0003.26,0002.22
2024-04-05 03:57:00,SystemResetWarning,0822.2,5.01,000.00,026.0,025.2,000.0,034.5,027.8,010.1,0000.0,0011.67,0003.24,0002.23
2024-04-05 03:58:00,SystemResetWarning,0822.2,4.99,000.00,026.0,025.2,000.0,034.5,027.8,010.1,0000.0,0011.57,0003.24,0002.25
2024-04-05 03:59:00,SystemResetWarning,0822.2,5.00,000.00,026.0,025.2,000.0,034.5,027.8,010.0,0000.0,0011.44,0003.18,0002.26
